{"data":{"norad_id":61589,"intl_designator":"2024-187R","name":"STARLINK-32416","alt_names":[],"object_type":"PAYLOAD","status":"ACTIVE","operator":null,"country":"US","launch_date":"2024-10-18","launch_site_code":"AFETR","launch_vehicle":null,"mission":null,"orbit_class":"UNKNOWN","rcs_meters":null,"size_class":null,"mass_kg":null,"dimensions":null,"purposes":["comms"],"wikipedia_slug":null,"has_3d_model":false,"image_url":null,"decayed_at":null,"tle_current":{"epoch":"2026-05-25T02:59:30.184224Z","epoch_age_seconds":71242,"freshness":"FRESH","line1":"1 61589U 24187R   26145.12465491  .00002244  00000+0  87817-4 0  9997","line2":"2 61589  53.1613  54.5418 0001140 122.6990 237.4121 15.30218383 91006","mean_motion":15.30218383,"eccentricity":0.000114,"inclination_deg":53.1613,"raan_deg":54.5418,"arg_perigee_deg":122.699,"mean_anomaly_deg":237.4121,"bstar":8.7817e-5,"rev_number":9100,"period_min":94.104215189003,"perigee_km":474.37890576567,"apogee_km":475.94145752308,"semimajor_km":6853.2971816444,"source":"CELESTRAK","updated_at":"2026-05-25T13:38:19.404982Z"}}}